• In India
  • List of Countries
  • For 7 days
  • Water Temperature
  • Satellite Maps
  • Weather Map
  • Weather Widgets
  • user-avatar
    Login

    Hourly Weather Popelivshchyna

    Today, 20 August, Monday

    Time Temperature Precipitation Wind Pressure Humidity
    00:00 +19°C° 0 mm 2 mps 753 mmHg 57%
    01:00 +18°C° 0 mm 2 mps 753 mmHg 58%
    02:00 +18°C° 0 mm 2 mps 753 mmHg 60%
    03:00 +17°C° 0 mm 2 mps 753 mmHg 61%
    04:00 +17°C° 0 mm 2 mps 753 mmHg 61%
    05:00 +17°C° 0 mm 2 mps 753 mmHg 61%
    06:00 +19°C° 0 mm 2 mps 753 mmHg 57%
    07:00 +21°C° 0 mm 2 mps 753 mmHg 53%
    08:00 +24°C° 0 mm 2 mps 753 mmHg 47%
    09:00 +25°C° 0 mm 2 mps 753 mmHg 44%
    10:00 +27°C° 0 mm 2 mps 753 mmHg 40%
    11:00 +28°C° 0 mm 2 mps 753 mmHg 37%
    12:00 +29°C° 0 mm 2 mps 753 mmHg 36%
    13:00 +29°C° 0 mm 2 mps 752 mmHg 34%
    14:00 +30°C° 0 mm 2 mps 752 mmHg 33%
    15:00 +30°C° 0 mm 2 mps 752 mmHg 36%
    16:00 +29°C° 0 mm 1 mps 752 mmHg 38%
    17:00 +29°C° 0 mm 1 mps 751 mmHg 41%
    18:00 +27°C° 0 mm 1 mps 751 mmHg 43%
    19:00 +25°C° 0 mm 2 mps 751 mmHg 46%
    20:00 +23°C° 0 mm 2 mps 751 mmHg 48%
    21:00 +21°C° 0 mm 2 mps 751 mmHg 48%
    22:00 +21°C° 0 mm 2 mps 751 mmHg 48%
    23:00 +20°C° 0 mm 2 mps 751 mmHg 48%

    Tomorrow, 21 August, Tuesday

    Time Temperature Precipitation Wind Pressure Humidity
    00:00 +20°C° 0 mm 2 mps 751 mmHg 47%
    01:00 +19°C° 0 mm 2 mps 751 mmHg 46%
    02:00 +19°C° 0 mm 2 mps 751 mmHg 45%
    03:00 +18°C° 0 mm 2 mps 751 mmHg 46%
    04:00 +18°C° 0 mm 2 mps 750 mmHg 46%
    05:00 +18°C° 0 mm 2 mps 750 mmHg 46%
    06:00 +20°C° 0 mm 3 mps 750 mmHg 45%
    07:00 +21°C° 0 mm 3 mps 750 mmHg 44%
    08:00 +24°C° 0 mm 3 mps 750 mmHg 43%
    09:00 +26°C° 0 mm 4 mps 750 mmHg 41%
    10:00 +28°C° 0 mm 4 mps 750 mmHg 38%
    11:00 +30°C° 0 mm 4 mps 750 mmHg 35%
    12:00 +30°C° 0 mm 5 mps 750 mmHg 35%
    13:00 +32°C° 0 mm 5 mps 749 mmHg 36%
    14:00 +32°C° 0 mm 5 mps 749 mmHg 36%
    15:00 +32°C° 0 mm 4 mps 748 mmHg 40%
    16:00 +30°C° 0 mm 4 mps 748 mmHg 44%
    17:00 +29°C° 0 mm 3 mps 748 mmHg 48%
    18:00 +28°C° 0.3 mm 3 mps 748 mmHg 54%
    19:00 +26°C° 0.3 mm 3 mps 748 mmHg 60%
    20:00 +24°C° 0.3 mm 3 mps 748 mmHg 67%
    21:00 +22°C° 0.3 mm 3 mps 749 mmHg 74%
    22:00 +21°C° 0.3 mm 3 mps 749 mmHg 82%
    23:00 +20°C° 0.3 mm 3 mps 749 mmHg 90%

    Day after tomorrow, 22 August, Wednesday

    Time Temperature Precipitation Wind Pressure Humidity
    00:00 +19°C° 0 mm 3 mps 749 mmHg 91%
    01:00 +18°C° 0 mm 3 mps 749 mmHg 92%
    02:00 +18°C° 0 mm 3 mps 750 mmHg 94%
    03:00 +17°C° 0 mm 3 mps 750 mmHg 94%
    04:00 +17°C° 0 mm 3 mps 750 mmHg 94%
    05:00 +16°C° 0 mm 3 mps 750 mmHg 94%
    06:00 +17°C° 0 mm 3 mps 751 mmHg 87%
    07:00 +19°C° 0 mm 4 mps 751 mmHg 80%
    08:00 +20°C° 0 mm 4 mps 752 mmHg 72%
    09:00 +21°C° 0 mm 4 mps 752 mmHg 64%
    10:00 +23°C° 0 mm 5 mps 752 mmHg 56%
    11:00 +25°C° 0 mm 5 mps 752 mmHg 48%
    12:00 +25°C° 0 mm 5 mps 752 mmHg 46%
    13:00 +25°C° 0 mm 5 mps 753 mmHg 44%
    14:00 +26°C° 0 mm 5 mps 753 mmHg 43%
    15:00 +25°C° 0 mm 5 mps 753 mmHg 44%
    16:00 +25°C° 0 mm 4 mps 753 mmHg 46%
    17:00 +23°C° 0 mm 4 mps 753 mmHg 48%
    18:00 +21°C° 0 mm 4 mps 754 mmHg 53%
    19:00 +19°C° 0 mm 3 mps 754 mmHg 58%
    20:00 +17°C° 0 mm 3 mps 754 mmHg 62%
    21:00 +16°C° 0 mm 3 mps 755 mmHg 64%
    22:00 +16°C° 0 mm 3 mps 755 mmHg 66%
    23:00 +14°C° 0 mm 3 mps 755 mmHg 68%

    23 August, Thursday

    Time Temperature Precipitation Wind Pressure Humidity
    00:00 +13°C° 0 mm 3 mps 755 mmHg 69%
    01:00 +14°C° 0 mm 2 mps 755 mmHg 70%
    02:00 +13°C° 0 mm 2 mps 756 mmHg 71%
    03:00 +13°C° 0 mm 2 mps 756 mmHg 71%
    04:00 +12°C° 0 mm 2 mps 756 mmHg 72%
    05:00 +12°C° 0 mm 2 mps 756 mmHg 72%
    06:00 +14°C° 0 mm 2 mps 756 mmHg 67%
    07:00 +16°C° 0 mm 2 mps 756 mmHg 61%
    08:00 +18°C° 0 mm 2 mps 756 mmHg 55%
    09:00 +20°C° 0 mm 2 mps 756 mmHg 50%
    10:00 +21°C° 0 mm 2 mps 756 mmHg 44%
    11:00 +23°C° 0 mm 2 mps 756 mmHg 39%
    12:00 +24°C° 0 mm 2 mps 756 mmHg 37%
    13:00 +25°C° 0 mm 2 mps 756 mmHg 35%
    14:00 +25°C° 0 mm 2 mps 755 mmHg 34%
    15:00 +25°C° 0 mm 2 mps 755 mmHg 36%
    16:00 +25°C° 0 mm 2 mps 755 mmHg 39%
    17:00 +24°C° 0 mm 2 mps 755 mmHg 42%
    18:00 +21°C° 0 mm 2 mps 755 mmHg 46%
    19:00 +19°C° 0 mm 2 mps 755 mmHg 50%
    20:00 +17°C° 0 mm 2 mps 755 mmHg 53%
    21:00 +17°C° 0 mm 2 mps 755 mmHg 55%
    22:00 +16°C° 0 mm 2 mps 755 mmHg 57%
    23:00 +14°C° 0 mm 3 mps 755 mmHg 59%

    24 August, Friday

    Time Temperature Precipitation Wind Pressure Humidity
    00:00 +14°C° 0 mm 3 mps 755 mmHg 61%
    01:00 +14°C° 0 mm 3 mps 755 mmHg 62%
    02:00 +13°C° 0 mm 3 mps 755 mmHg 64%
    03:00 +13°C° 0 mm 3 mps 755 mmHg 65%
    04:00 +13°C° 0 mm 3 mps 755 mmHg 66%
    05:00 +12°C° 0 mm 3 mps 755 mmHg 67%
    06:00 +14°C° 0 mm 3 mps 755 mmHg 62%
    07:00 +17°C° 0 mm 3 mps 755 mmHg 57%
    08:00 +19°C° 0 mm 3 mps 755 mmHg 52%
    09:00 +21°C° 0 mm 3 mps 755 mmHg 46%
    10:00 +23°C° 0 mm 4 mps 755 mmHg 40%
    11:00 +26°C° 0 mm 4 mps 754 mmHg 35%
    12:00 +27°C° 0 mm 4 mps 754 mmHg 33%
    13:00 +27°C° 0 mm 4 mps 754 mmHg 32%
    14:00 +27°C° 0 mm 4 mps 753 mmHg 31%
    15:00 +27°C° 0 mm 3 mps 753 mmHg 34%
    16:00 +26°C° 0 mm 3 mps 753 mmHg 37%
    17:00 +26°C° 0 mm 3 mps 753 mmHg 41%
    18:00 +24°C° 0 mm 3 mps 753 mmHg 44%
    19:00 +21°C° 0 mm 3 mps 753 mmHg 48%
    20:00 +19°C° 0 mm 3 mps 753 mmHg 52%
    21:00 +18°C° 0 mm 3 mps 753 mmHg 53%
    22:00 +17°C° 0 mm 3 mps 752 mmHg 53%
    23:00 +17°C° 0 mm 4 mps 752 mmHg 54%

    25 August, Saturday

    Time Temperature Precipitation Wind Pressure Humidity
    00:00 +16°C° 0 mm 3 mps 752 mmHg 54%
    01:00 +16°C° 0 mm 3 mps 752 mmHg 54%
    02:00 +14°C° 0 mm 3 mps 752 mmHg 54%
    03:00 +14°C° 0 mm 3 mps 752 mmHg 55%
    04:00 +14°C° 0 mm 3 mps 752 mmHg 55%
    05:00 +13°C° 0 mm 3 mps 752 mmHg 55%
    06:00 +16°C° 0 mm 3 mps 752 mmHg 52%
    07:00 +18°C° 0 mm 4 mps 752 mmHg 49%
    08:00 +21°C° 0 mm 4 mps 752 mmHg 45%
    09:00 +23°C° 0 mm 4 mps 752 mmHg 41%
    10:00 +25°C° 0 mm 4 mps 751 mmHg 36%
    11:00 +27°C° 0 mm 4 mps 751 mmHg 31%
    12:00 +28°C° 0 mm 4 mps 751 mmHg 30%
    13:00 +28°C° 0 mm 4 mps 751 mmHg 29%
    14:00 +29°C° 0 mm 3 mps 750 mmHg 27%
    15:00 +28°C° 0 mm 3 mps 750 mmHg 30%
    16:00 +28°C° 0 mm 3 mps 750 mmHg 34%
    17:00 +27°C° 0 mm 3 mps 749 mmHg 37%
    18:00 +25°C° 0 mm 3 mps 749 mmHg 39%
    19:00 +22°C° 0 mm 3 mps 750 mmHg 42%
    20:00 +20°C° 0 mm 3 mps 750 mmHg 44%
    21:00 +19°C° 0 mm 3 mps 750 mmHg 45%
    22:00 +18°C° 0 mm 3 mps 750 mmHg 45%
    23:00 +18°C° 0 mm 3 mps 750 mmHg 46%
    Show more